QPF
0.00 0.00 0.00 0.01 0.01 0.00 0.00 0.00 0.01 0.01 0.01 0.01 0.01 0.01 0.01 0.01 0.00 0.00 0.00 0.00 0.00 0.01 0.01 0.01 0.01 0.01 0.00 0.00 0.00 0.00 0.00 0.00 0.00 0.00 0.00 0.00 0.00 0.00 0.00 0.00 0.00 0.00 0.00
0.00 0.00 0.00 0.01 0.01 0.00 0.00 0.00 0.01 0.01 0.01 0.01 0.01 0.01 0.01 0.01 0.01 0.01 0.01 0.01 0.00 0.01 0.01 0.01 0.01 0.01 0.00 0.00 0.00 0.00 0.00 0.00 0.00 0.00 0.00 0.00 0.00 0.00 0.00 0.00 0.00 0.00 0.00
0.00 0.00 0.01 0.01 0.01 0.01 0.00 0.00 0.01 0.01 0.01 0.01 0.01 0.01 0.01 0.01 0.01 0.01 0.01 0.00 0.00 0.00 0.00 0.01 0.01 0.00 0.00 0.00 0.00 0.00 0.00 0.00 0.00 0.00 0.00 0.00 0.00 0.01 0.01 0.01 0.00 0.00 0.00
0.00 0.00 0.01 0.01 0.00 0.01 0.00 0.01 0.01 0.00 0.00 0.01 0.01 0.01 0.01 0.01 0.01 0.01 0.01 0.00 0.00 0.00 0.00 0.00 0.00 0.00 0.00 0.00 0.00 0.00 0.00 0.00 0.00 0.00 0.00 0.00 0.00 0.01 0.01 0.01 0.01 0.01 0.01
0.00 0.00 0.01 0.00 0.01 0.01 0.01 0.01 0.01 0.00 0.00 0.01 0.01 0.01 0.01 0.01 0.00 0.00 0.00 0.00 0.00 0.00 0.00 0.00 0.00 0.00 0.00 0.00 0.00 0.00 0.00 0.00 0.00 0.00 0.00 0.00 0.00 0.00 0.01 0.01 0.01 0.01 0.01
0.00 0.00 0.00 0.00 0.01 0.01 0.01 0.01 0.00 0.00 0.00 0.01 0.01 0.01 0.01 0.01 0.00 0.00 0.00 0.00 0.00 0.00 0.00 0.00 0.00 0.00 0.00 0.00 0.00 0.00 0.00 0.00 0.00 0.00 0.00 0.00 0.00 0.00 0.01 0.01 0.01 0.01 0.01
0.00 0.00 0.00 0.01 0.01 0.01 0.01 0.01 0.01 0.01 0.01 0.01 0.01 0.01 0.01 0.00 0.00 0.00 0.00 0.00 0.00 0.00 0.00 0.00 0.00 0.00 0.00 0.00 0.00 0.00 0.00 0.00 0.00 0.00 0.00 0.00 0.00 0.01 0.01 0.01 0.01 0.01 0.01
0.00 0.00 0.00 0.01 0.01 0.01 0.01 0.01 0.01 0.01 0.01 0.01 0.01 0.01 0.01 0.00 0.00 0.00 0.00 0.00 0.00 0.00 0.00 0.00 0.00 0.00 0.00 0.00 0.00 0.00 0.00 0.00 0.00 0.00 0.00 0.00 0.00 0.01 0.01 0.01 0.01 0.01 0.02
0.00 0.00 0.00 0.01 0.01 0.01 0.01 0.01 0.01 0.01 0.01 0.01 0.01 0.01 0.00 0.00 0.00 0.00 0.00 0.00 0.00 0.00 0.00 0.00 0.00 0.00 0.00 0.00 0.00 0.00 0.00 0.00 0.00 0.00 0.00 0.00 0.00 0.01 0.01 0.01 0.01 0.01 0.01
0.00 0.00 0.01 0.01 0.01 0.01 0.01 0.01 0.01 0.01 0.01 0.01 0.01 0.00 0.00 0.00 0.00 0.00 0.00 0.00 0.00 0.00 0.00 0.00 0.00 0.00 0.00 0.00 0.00 0.00 0.00 0.00 0.00 0.00 0.00 0.00 0.00 0.01 0.01 0.01 0.01 0.01 0.01
0.00 0.00 0.01 0.01 0.01 0.01 0.01 0.00 0.00 0.01 0.01 0.01 0.00 0.00 0.00 0.00 0.00 0.00 0.00 0.00 0.00 0.00 0.00 0.00 0.00 0.00 0.00 0.00 0.00 0.00 0.00 0.00 0.00 0.00 0.00 0.00 0.00 0.01 0.01 0.01 0.01 0.01 0.01
0.00 0.00 0.01 0.01 0.01 0.01 0.01 0.01 0.01 0.01 0.00 0.00 0.00 0.00 0.00 0.00 0.00 0.00 0.00 0.00 0.00 0.00 0.00 0.00 0.00 0.00 0.00 0.00 0.00 0.00 0.00 0.00 0.00 0.00 0.00 0.00 0.00 0.00 0.01 0.00 0.00 0.00 0.01
0.00 0.00 0.00 0.01 0.01 0.01 0.01 0.01 0.01 0.01 0.01 0.00 0.00 0.00 0.00 0.00 0.00 0.00 0.00 0.00 0.00 0.00 0.00 0.00 0.00 0.00 0.00 0.00 0.00 0.00 0.00 0.00 0.00 0.00 0.00 0.00 0.00 0.00 0.00 0.00 0.00 0.00 0.01
0.00 0.00 0.00 0.01 0.01 0.01 0.01 0.00 0.00 0.01 0.01 0.00 0.00 0.00 0.00 0.00 0.00 0.00 0.00 0.00 0.00 0.00 0.00 0.00 0.00 0.00 0.00 0.00 0.00 0.00 0.00 0.00 0.00 0.00 0.00 0.00 0.00 0.00 0.00 0.00 0.00 0.00 0.00
0.00 0.00 0.00 0.00 0.01 0.01 0.01 0.00 0.00 0.00 0.00 0.00 0.00 0.00 0.00 0.00 0.00 0.00 0.00 0.00 0.00 0.00 0.00 0.00 0.00 0.00 0.00 0.00 0.00 0.00 0.00 0.00 0.00 0.00 0.00 0.00 0.00 0.00 0.00 0.00 0.00 0.00 0.00
0.00 0.00 0.00 0.00 0.00 0.00 0.00 0.00 0.00 0.00 0.00 0.00 0.00 0.00 0.00 0.00 0.00 0.00 0.00 0.00 0.00 0.00 0.00 0.00 0.00 0.00 0.00 0.00 0.00 0.00 0.00 0.00 0.00 0.00 0.00 0.00 0.00 0.00 0.00 0.00 0.00 0.00 0.00
0.00 0.00 0.00 0.01 0.01 0.01 0.00 0.00 0.00 0.00 0.00 0.00 0.00 0.00 0.00 0.00 0.00 0.00 0.00 0.00 0.00 0.00 0.00 0.00 0.00 0.00 0.00 0.00 0.00 0.00 0.00 0.00 0.00 0.00 0.00 0.00 0.00 0.00 0.00 0.00 0.00 0.00 0.00
0.00 0.00 0.00 0.00 0.01 0.01 0.00 0.00 0.00 0.00 0.00 0.00 0.00 0.00 0.00 0.00 0.00 0.00 0.00 0.00 0.00 0.00 0.00 0.00 0.00 0.00 0.00 0.00 0.00 0.00 0.00 0.00 0.00 0.00 0.00 0.00 0.00 0.00 0.00 0.00 0.00 0.00 0.00
0.00 0.00 0.00 0.00 0.00 0.00 0.00 0.00 0.00 0.00 0.00 0.00 0.00 0.00 0.00 0.00 0.00 0.00 0.00 0.00 0.00 0.00 0.00 0.00 0.00 0.00 0.00 0.00 0.00 0.00 0.00 0.00 0.00 0.00 0.00 0.00 0.00 0.00 0.00 0.00 0.00 0.00 0.00
0.00 0.00 0.00 0.00 0.00 0.00 0.00 0.00 0.00 0.00 0.00 0.00 0.00 0.00 0.00 0.00 0.00 0.00 0.00 0.00 0.00 0.00 0.00 0.00 0.00 0.00 0.00 0.00 0.00 0.00 0.00 0.00 0.00 0.00 0.00 0.00 0.00 0.00 0.00 0.00 0.00 0.00 0.00
0.00 0.00 0.00 0.00 0.00 0.00 0.00 0.00 0.00 0.00 0.00 0.00 0.00 0.00 0.00 0.00 0.00 0.00 0.00 0.00 0.00 0.00 0.00 0.00 0.00 0.00 0.00 0.00 0.00 0.00 0.00 0.00 0.00 0.00 0.00 0.00 0.00 0.00 0.00 0.00 0.00 0.00 0.00
0.00 0.00 0.00 0.00 0.00 0.00 0.00 0.00 0.00 0.00 0.00 0.00 0.00 0.00 0.00 0.00 0.00 0.00 0.00 0.00 0.00 0.00 0.00 0.00 0.00 0.00 0.00 0.00 0.00 0.00 0.00 0.00 0.00 0.00 0.00 0.00 0.00 0.00 0.00 0.00 0.00 0.00 0.00
0.00 0.00 0.00 0.00 0.00 0.01 0.00 0.00 0.00 0.00 0.00 0.00 0.00 0.00 0.00 0.00 0.00 0.00 0.00 0.00 0.00 0.00 0.00 0.00 0.00 0.00 0.00 0.00 0.00 0.00 0.00 0.00 0.00 0.00 0.00 0.00 0.00 0.00 0.00 0.00 0.00 0.00 0.00
0.00 0.00 0.00 0.00 0.00 0.00 0.00 0.00 0.00 0.00 0.00 0.00 0.00 0.00 0.00 0.00 0.00 0.00 0.00 0.00 0.00 0.00 0.00 0.00 0.00 0.00 0.00 0.00 0.00 0.00 0.00 0.00 0.00 0.00 0.00 0.00 0.00 0.00 0.00 0.00 0.00 0.00 0.00
0.00 0.00 0.00 0.00 0.00 0.00 0.00 0.00 0.00 0.00 0.00 0.00 0.00 0.00 0.00 0.00 0.00 0.00 0.00 0.00 0.00 0.00 0.00 0.00 0.00 0.00 0.00 0.00 0.00 0.00 0.00 0.00 0.00 0.00 0.00 0.00 0.00 0.00 0.00 0.00 0.00 0.00 0.00
0.00 0.00 0.00 0.00 0.00 0.00 0.00 0.00 0.00 0.00 0.00 0.00 0.00 0.00 0.00 0.00 0.00 0.00 0.00 0.00 0.00 0.00 0.00 0.00 0.00 0.00 0.00 0.00 0.00 0.00 0.00 0.00 0.00 0.00 0.00 0.00 0.00 0.00 0.00 0.00 0.00 0.00 0.00
MSLP
1008.88 1009.28 1009.67 1010.08 1010.49 1010.90 1011.32 1011.74 1012.16 1012.56 1012.97 1013.38 1013.79 1014.20 1014.61 1015.00 1015.36 1015.67 1015.92 1016.11 1016.25 1016.36 1016.45 1016.55 1016.67 1016.81 1016.97 1017.13 1017.28 1017.40 1017.50 1017.56 1017.59 1017.60 1017.60 1017.60 1017.59 1017.59 1017.58 1017.55 1017.50 1017.44 1017.36
1008.46 1008.94 1009.44 1009.95 1010.45 1010.95 1011.42 1011.86 1012.28 1012.68 1013.08 1013.48 1013.91 1014.34 1014.78 1015.21 1015.60 1015.93 1016.21 1016.42 1016.59 1016.73 1016.86 1016.99 1017.13 1017.29 1017.44 1017.59 1017.71 1017.79 1017.84 1017.86 1017.86 1017.86 1017.86 1017.87 1017.88 1017.88 1017.88 1017.84 1017.79 1017.71 1017.63
1008.05 1008.60 1009.19 1009.80 1010.41 1010.99 1011.52 1012.00 1012.43 1012.83 1013.23 1013.63 1014.05 1014.49 1014.94 1015.38 1015.78 1016.13 1016.42 1016.65 1016.85 1017.03 1017.20 1017.38 1017.56 1017.74 1017.90 1018.03 1018.11 1018.15 1018.16 1018.14 1018.12 1018.10 1018.11 1018.12 1018.15 1018.16 1018.15 1018.12 1018.06 1017.97 1017.88
1007.72 1008.33 1008.99 1009.69 1010.39 1011.04 1011.64 1012.16 1012.61 1013.02 1013.41 1013.81 1014.22 1014.66 1015.10 1015.53 1015.93 1016.27 1016.56 1016.82 1017.04 1017.26 1017.48 1017.71 1017.94 1018.15 1018.32 1018.44 1018.49 1018.50 1018.46 1018.41 1018.37 1018.35 1018.36 1018.38 1018.42 1018.44 1018.43 1018.39 1018.32 1018.23 1018.12
1007.52 1008.16 1008.89 1009.66 1010.43 1011.15 1011.79 1012.34 1012.81 1013.23 1013.62 1014.01 1014.42 1014.85 1015.28 1015.69 1016.07 1016.40 1016.69 1016.95 1017.20 1017.45 1017.72 1018.00 1018.27 1018.51 1018.69 1018.81 1018.85 1018.83 1018.77 1018.70 1018.64 1018.62 1018.64 1018.67 1018.71 1018.73 1018.72 1018.67 1018.59 1018.48 1018.37
1007.46 1008.13 1008.90 1009.72 1010.53 1011.29 1011.97 1012.54 1013.03 1013.45 1013.84 1014.23 1014.64 1015.06 1015.48 1015.88 1016.24 1016.55 1016.83 1017.09 1017.35 1017.63 1017.93 1018.24 1018.55 1018.81 1019.01 1019.13 1019.16 1019.13 1019.06 1018.99 1018.94 1018.92 1018.94 1018.99 1019.02 1019.04 1019.02 1018.95 1018.86 1018.74 1018.63
1007.52 1008.21 1009.00 1009.85 1010.70 1011.48 1012.16 1012.74 1013.23 1013.65 1014.05 1014.45 1014.87 1015.30 1015.72 1016.11 1016.46 1016.77 1017.04 1017.29 1017.56 1017.84 1018.16 1018.48 1018.80 1019.08 1019.28 1019.40 1019.43 1019.40 1019.34 1019.28 1019.24 1019.24 1019.27 1019.32 1019.36 1019.36 1019.32 1019.24 1019.13 1019.01 1018.90
1007.64 1008.36 1009.17 1010.04 1010.88 1011.66 1012.34 1012.91 1013.39 1013.82 1014.23 1014.66 1015.10 1015.55 1015.99 1016.40 1016.76 1017.07 1017.33 1017.58 1017.83 1018.10 1018.41 1018.73 1019.03 1019.30 1019.49 1019.61 1019.64 1019.63 1019.58 1019.54 1019.53 1019.55 1019.60 1019.66 1019.69 1019.68 1019.63 1019.53 1019.40 1019.28 1019.18
1007.76 1008.51 1009.34 1010.21 1011.05 1011.81 1012.47 1013.02 1013.49 1013.93 1014.36 1014.81 1015.30 1015.79 1016.27 1016.71 1017.09 1017.41 1017.68 1017.92 1018.15 1018.41 1018.68 1018.97 1019.25 1019.48 1019.66 1019.76 1019.80 1019.79 1019.77 1019.76 1019.78 1019.83 1019.90 1019.97 1020.01 1020.00 1019.93 1019.82 1019.68 1019.56 1019.48
1007.82 1008.60 1009.46 1010.33 1011.16 1011.89 1012.52 1013.05 1013.52 1013.96 1014.42 1014.91 1015.44 1015.99 1016.52 1017.00 1017.41 1017.75 1018.03 1018.26 1018.48 1018.71 1018.95 1019.19 1019.42 1019.62 1019.77 1019.85 1019.88 1019.89 1019.89 1019.92 1019.97 1020.06 1020.17 1020.25 1020.30 1020.29 1020.22 1020.11 1019.98 1019.86 1019.79
1007.79 1008.61 1009.48 1010.35 1011.16 1011.87 1012.47 1012.99 1013.45 1013.90 1014.39 1014.92 1015.50 1016.10 1016.68 1017.20 1017.66 1018.02 1018.31 1018.55 1018.75 1018.96 1019.16 1019.36 1019.55 1019.71 1019.82 1019.89 1019.92 1019.94 1019.97 1020.03 1020.12 1020.24 1020.38 1020.49 1020.56 1020.57 1020.51 1020.41 1020.28 1020.18 1020.12
1007.66 1008.51 1009.39 1010.26 1011.05 1011.74 1012.32 1012.83 1013.30 1013.77 1014.28 1014.85 1015.46 1016.10 1016.72 1017.28 1017.76 1018.16 1018.46 1018.71 1018.92 1019.10 1019.29 1019.46 1019.62 1019.75 1019.84 1019.90 1019.93 1019.96 1020.01 1020.10 1020.23 1020.38 1020.55 1020.69 1020.79 1020.82 1020.79 1020.71 1020.61 1020.52 1020.47
1007.42 1008.28 1009.17 1010.03 1010.81 1011.49 1012.07 1012.58 1013.07 1013.56 1014.09 1014.69 1015.32 1015.98 1016.62 1017.20 1017.71 1018.12 1018.45 1018.71 1018.93 1019.13 1019.31 1019.47 1019.62 1019.74 1019.83 1019.89 1019.93 1019.98 1020.05 1020.16 1020.32 1020.50 1020.69 1020.86 1020.98 1021.05 1021.05 1021.01 1020.94 1020.87 1020.83
1007.08 1007.94 1008.82 1009.67 1010.44 1011.13 1011.73 1012.26 1012.78 1013.30 1013.85 1014.46 1015.10 1015.76 1016.39 1016.98 1017.48 1017.91 1018.26 1018.55 1018.80 1019.02 1019.23 1019.41 1019.58 1019.71 1019.82 1019.89 1019.96 1020.03 1020.12 1020.24 1020.41 1020.61 1020.81 1021.00 1021.16 1021.26 1021.31 1021.30 1021.27 1021.23 1021.19
1006.65 1007.48 1008.35 1009.19 1009.97 1010.67 1011.31 1011.89 1012.45 1013.00 1013.58 1014.20 1014.83 1015.46 1016.07 1016.64 1017.14 1017.58 1017.95 1018.27 1018.56 1018.83 1019.08 1019.31 1019.51 1019.68 1019.82 1019.93 1020.02 1020.12 1020.23 1020.37 1020.54 1020.74 1020.95 1021.15 1021.32 1021.45 1021.53 1021.57 1021.58 1021.57 1021.55
1006.11 1006.91 1007.75 1008.59 1009.39 1010.14 1010.83 1011.48 1012.10 1012.70 1013.31 1013.92 1014.53 1015.13 1015.71 1016.24 1016.73 1017.16 1017.56 1017.92 1018.26 1018.58 1018.89 1019.18 1019.44 1019.67 1019.85 1020.01 1020.14 1020.26 1020.39 1020.53 1020.70 1020.89 1021.09 1021.29 1021.47 1021.62 1021.73 1021.81 1021.86 1021.87 1021.87
1005.48 1006.24 1007.06 1007.90 1008.74 1009.55 1010.32 1011.05 1011.74 1012.40 1013.04 1013.65 1014.24 1014.80 1015.33 1015.84 1016.30 1016.74 1017.16 1017.56 1017.96 1018.34 1018.71 1019.06 1019.38 1019.66 1019.91 1020.11 1020.29 1020.44 1020.59 1020.74 1020.90 1021.08 1021.26 1021.44 1021.61 1021.76 1021.89 1022.00 1022.08 1022.12 1022.13
1004.76 1005.49 1006.30 1007.16 1008.04 1008.93 1009.79 1010.61 1011.39 1012.11 1012.77 1013.39 1013.96 1014.48 1014.98 1015.45 1015.91 1016.35 1016.79 1017.24 1017.68 1018.12 1018.55 1018.95 1019.33 1019.67 1019.96 1020.22 1020.44 1020.63 1020.80 1020.96 1021.12 1021.28 1021.43 1021.59 1021.74 1021.88 1022.01 1022.13 1022.23 1022.30 1022.34
1003.96 1004.68 1005.49 1006.39 1007.33 1008.30 1009.26 1010.18 1011.03 1011.81 1012.51 1013.12 1013.67 1014.17 1014.64 1015.09 1015.54 1016.00 1016.47 1016.95 1017.44 1017.92 1018.40 1018.84 1019.26 1019.64 1019.98 1020.28 1020.55 1020.78 1020.98 1021.16 1021.32 1021.47 1021.60 1021.72 1021.84 1021.97 1022.09 1022.21 1022.32 1022.41 1022.47
1003.13 1003.85 1004.68 1005.62 1006.63 1007.68 1008.73 1009.73 1010.66 1011.49 1012.21 1012.82 1013.36 1013.84 1014.29 1014.73 1015.18 1015.66 1016.16 1016.68 1017.21 1017.73 1018.23 1018.70 1019.15 1019.55 1019.93 1020.27 1020.58 1020.85 1021.10 1021.31 1021.48 1021.62 1021.74 1021.83 1021.92 1022.02 1022.12 1022.22 1022.34 1022.44 1022.52
1002.29 1003.02 1003.89 1004.88 1005.96 1007.08 1008.20 1009.27 1010.25 1011.11 1011.84 1012.45 1012.98 1013.44 1013.88 1014.33 1014.80 1015.31 1015.84 1016.40 1016.95 1017.49 1018.01 1018.49 1018.95 1019.37 1019.77 1020.14 1020.49 1020.82 1021.12 1021.36 1021.57 1021.72 1021.83 1021.90 1021.96 1022.02 1022.09 1022.18 1022.29 1022.40 1022.50
1001.46 1002.23 1003.14 1004.17 1005.31 1006.49 1007.66 1008.77 1009.78 1010.65 1011.38 1011.98 1012.49 1012.95 1013.39 1013.85 1014.35 1014.89 1015.46 1016.05 1016.63 1017.18 1017.70 1018.19 1018.64 1019.07 1019.48 1019.89 1020.29 1020.67 1021.01 1021.31 1021.55 1021.73 1021.84 1021.91 1021.95 1021.98 1022.02 1022.09 1022.18 1022.30 1022.42
1000.64 1001.45 1002.41 1003.49 1004.66 1005.88 1007.08 1008.21 1009.22 1010.08 1010.80 1011.39 1011.89 1012.35 1012.80 1013.28 1013.81 1014.38 1014.98 1015.60 1016.20 1016.76 1017.28 1017.76 1018.21 1018.64 1019.08 1019.51 1019.95 1020.38 1020.78 1021.14 1021.43 1021.64 1021.77 1021.84 1021.87 1021.88 1021.90 1021.94 1022.02 1022.13 1022.26
999.82 1000.68 1001.68 1002.79 1003.99 1005.22 1006.42 1007.54 1008.53 1009.38 1010.08 1010.67 1011.16 1011.63 1012.10 1012.61 1013.16 1013.77 1014.40 1015.04 1015.65 1016.22 1016.75 1017.22 1017.67 1018.11 1018.56 1019.03 1019.51 1019.99 1020.44 1020.86 1021.20 1021.44 1021.61 1021.69 1021.72 1021.72 1021.72 1021.75 1021.81 1021.92 1022.05
998.98 999.88 1000.90 1002.04 1003.24 1004.46 1005.64 1006.74 1007.72 1008.56 1009.25 1009.83 1010.34 1010.82 1011.32 1011.86 1012.45 1013.08 1013.74 1014.39 1015.02 1015.59 1016.12 1016.60 1017.05 1017.51 1017.97 1018.47 1018.99 1019.51 1020.02 1020.48 1020.86 1021.16 1021.35 1021.45 1021.49 1021.50 1021.49 1021.51 1021.56 1021.65 1021.78
998.08 999.02 1000.06 1001.19 1002.37 1003.57 1004.73 1005.81 1006.77 1007.60 1008.31 1008.91 1009.45 1009.97 1010.50 1011.08 1011.69 1012.35 1013.02 1013.68 1014.31 1014.89 1015.42 1015.91 1016.38 1016.85 1017.35 1017.87 1018.42 1018.98 1019.53 1020.03 1020.45 1020.78 1021.01 1021.14 1021.21 1021.22 1021.22 1021.24 1021.28 1021.36 1021.48
Thickness
5771 5770 5767 5764 5762 5760 5758 5756 5755 5753 5751 5749 5748 5746 5744 5742 5741 5740 5739 5738 5737 5736 5734 5733 5732 5730 5728 5727 5725 5724 5723 5721 5720 5719 5718 5716 5715 5714 5713 5711 5710 5709 5708
5775 5769 5765 5762 5759 5757 5755 5753 5751 5749 5748 5746 5744 5742 5741 5739 5737 5736 5735 5734 5733 5732 5730 5728 5727 5725 5723 5722 5720 5718 5717 5717 5716 5714 5713 5711 5710 5709 5707 5706 5704 5703 5702
5772 5766 5761 5759 5756 5754 5752 5750 5748 5746 5744 5742 5740 5739 5737 5735 5734 5732 5731 5730 5729 5727 5725 5723 5722 5720 5718 5716 5715 5713 5712 5712 5711 5710 5708 5706 5704 5703 5701 5700 5699 5697 5696
5767 5762 5758 5755 5753 5750 5748 5746 5744 5742 5740 5738 5737 5735 5733 5731 5730 5728 5727 5725 5724 5722 5720 5718 5717 5715 5713 5711 5710 5708 5707 5707 5706 5705 5703 5700 5698 5697 5695 5694 5693 5691 5690
5762 5757 5754 5751 5749 5747 5745 5743 5741 5739 5737 5735 5733 5731 5729 5727 5726 5724 5722 5720 5719 5717 5715 5713 5712 5710 5708 5706 5704 5703 5702 5702 5701 5700 5697 5694 5692 5691 5690 5688 5686 5685 5684
5756 5752 5748 5746 5744 5743 5741 5739 5737 5735 5733 5731 5729 5727 5725 5723 5721 5720 5718 5716 5714 5712 5711 5709 5707 5705 5703 5701 5699 5698 5697 5697 5696 5694 5691 5688 5686 5685 5684 5682 5680 5678 5677
5751 5747 5743 5741 5740 5738 5737 5735 5733 5731 5729 5727 5725 5723 5721 5719 5717 5715 5713 5711 5709 5708 5706 5704 5702 5700 5698 5696 5694 5693 5692 5691 5690 5688 5684 5682 5680 5679 5677 5675 5673 5671 5669
5748 5743 5738 5736 5735 5734 5732 5730 5728 5727 5725 5723 5721 5719 5717 5715 5712 5711 5709 5707 5705 5704 5702 5700 5698 5695 5693 5691 5690 5688 5687 5686 5685 5682 5678 5675 5674 5673 5671 5669 5666 5664 5662
5743 5738 5734 5732 5730 5729 5728 5726 5724 5722 5721 5719 5717 5715 5712 5711 5708 5706 5705 5703 5701 5699 5697 5695 5693 5691 5688 5686 5685 5684 5683 5681 5679 5676 5672 5669 5668 5666 5664 5661 5659 5656 5654
5737 5734 5731 5729 5727 5725 5723 5722 5720 5718 5716 5714 5712 5710 5708 5706 5704 5702 5700 5698 5696 5694 5692 5690 5688 5686 5684 5682 5680 5679 5678 5676 5674 5670 5666 5663 5661 5659 5657 5654 5651 5649 5646
5731 5730 5728 5726 5724 5722 5719 5717 5715 5714 5712 5710 5708 5706 5704 5702 5700 5698 5696 5694 5692 5690 5688 5686 5683 5681 5679 5677 5676 5674 5673 5671 5668 5663 5660 5657 5655 5653 5650 5647 5643 5640 5637
5726 5727 5727 5725 5722 5719 5717 5714 5711 5709 5707 5706 5704 5702 5700 5699 5697 5694 5692 5690 5688 5686 5683 5681 5679 5677 5675 5673 5671 5670 5668 5666 5663 5657 5653 5650 5648 5646 5642 5639 5636 5633 5629
5726 5725 5725 5724 5721 5718 5715 5711 5709 5707 5704 5703 5701 5699 5698 5696 5693 5690 5688 5685 5683 5681 5679 5677 5675 5673 5671 5669 5667 5665 5663 5661 5657 5652 5647 5644 5641 5638 5635 5632 5628 5625 5621
5722 5722 5723 5722 5719 5716 5713 5710 5708 5706 5703 5701 5699 5697 5696 5694 5691 5687 5685 5682 5680 5678 5676 5673 5672 5670 5668 5665 5663 5660 5658 5655 5651 5645 5641 5637 5634 5631 5628 5624 5621 5617 5613
5719 5720 5720 5719 5717 5714 5712 5709 5707 5705 5702 5700 5698 5696 5694 5691 5688 5685 5683 5680 5678 5675 5673 5671 5669 5666 5664 5661 5658 5655 5652 5648 5645 5639 5635 5631 5627 5624 5620 5617 5613 5610 5606
5719 5718 5719 5717 5715 5712 5710 5708 5706 5704 5701 5699 5697 5694 5692 5689 5686 5683 5681 5678 5676 5673 5670 5668 5665 5662 5659 5656 5652 5649 5646 5642 5639 5634 5629 5624 5620 5616 5613 5609 5606 5602 5598
5719 5718 5717 5715 5713 5710 5708 5706 5705 5703 5700 5698 5695 5692 5690 5687 5684 5681 5679 5675 5673 5670 5667 5664 5661 5657 5654 5650 5647 5643 5640 5636 5633 5629 5624 5618 5614 5609 5605 5602 5598 5594 5590
5719 5717 5716 5714 5711 5708 5706 5704 5703 5701 5698 5696 5693 5690 5688 5685 5682 5679 5676 5673 5670 5666 5663 5659 5656 5652 5648 5644 5640 5637 5634 5630 5627 5623 5618 5613 5608 5603 5599 5595 5590 5586 5583
5719 5717 5714 5713 5710 5707 5704 5702 5700 5699 5696 5694 5691 5688 5686 5683 5680 5676 5673 5670 5667 5663 5659 5655 5651 5647 5642 5638 5635 5631 5628 5624 5620 5617 5612 5608 5603 5598 5593 5588 5583 5579 5575
5719 5717 5713 5710 5707 5704 5701 5698 5696 5695 5694 5692 5690 5687 5684 5681 5678 5674 5670 5667 5663 5659 5654 5651 5646 5642 5638 5633 5630 5625 5621 5618 5615 5611 5607 5602 5598 5592 5587 5582 5577 5573 5568
5716 5715 5712 5708 5705 5703 5700 5697 5694 5692 5691 5690 5688 5686 5683 5679 5676 5672 5668 5664 5660 5655 5651 5647 5642 5637 5632 5628 5621 5616 5614 5612 5609 5605 5601 5596 5592 5587 5582 5577 5572 5567 5562
5714 5713 5712 5708 5705 5703 5702 5699 5695 5691 5688 5687 5686 5683 5681 5677 5674 5670 5666 5662 5658 5652 5648 5644 5639 5632 5627 5623 5617 5610 5604 5601 5600 5600 5595 5590 5586 5581 5577 5571 5566 5561 5556
5712 5712 5712 5709 5706 5703 5700 5695 5690 5686 5683 5682 5681 5681 5679 5676 5672 5668 5664 5660 5655 5650 5645 5641 5636 5630 5622 5618 5614 5608 5600 5596 5593 5591 5589 5585 5580 5575 5571 5566 5561 5556 5550
5712 5713 5712 5709 5705 5702 5698 5694 5691 5688 5686 5686 5683 5679 5677 5674 5670 5666 5662 5658 5653 5648 5643 5638 5634 5628 5621 5613 5609 5605 5601 5596 5588 5582 5580 5578 5575 5570 5566 5561 5556 5551 5545
5711 5710 5709 5706 5703 5700 5697 5694 5691 5689 5687 5683 5680 5676 5673 5671 5668 5664 5660 5656 5651 5646 5641 5636 5631 5625 5619 5612 5606 5600 5595 5591 5587 5578 5572 5569 5567 5564 5561 5556 5551 5545 5539
5706 5705 5704 5702 5700 5699 5696 5693 5690 5688 5684 5680 5678 5675 5672 5669 5666 5662 5658 5654 5649 5645 5639 5634 5628 5622 5617 5611 5604 5598 5592 5585 5580 5574 5568 5563 5559 5557 5555 5550 5545 5539 5533